Location: Unspecified
(0.0000°N, 0.0000°E)
Time: 01:24:10
(UTC+00:00)

ISS - Pass Details

Date: 22 October 2017
Orbit: 401 x 408 km, 51.6° (Epoch: 21 October)

Event Time Altitude Azimuth Distance (km) Brightness Sun altitude
Rises 05:15:25 0° 184° (S) 2,311 0.1 -7.1°
Reaches altitude 10° 05:18:35 10° 150° (SSE) 1,448 -0.4 -6.4°
Maximum altitude 05:19:52 12° 126° (SE) 1,338 0.0 -6.0°
Drops below altitude 10° 05:21:10 10° 103° (ESE) 1,444 0.9 -5.7°
Sets 05:24:18 0° 69° (ENE) 2,297 1.1 -5.0°
